Berlin, NH

11:29 PM EST on January 23, 2018 (GMT -0500)
Berlin Municipal

Weather History for KBML - January, 2003

Change the Weather History Date:

Sunday, January 19, 2003

  Actual Average Record
Temperature  
Mean Temperature -2 °F -  
Max Temperature 17 °F 19 °F 41 °F (1999)
Min Temperature -20 °F 0 °F -27 °F (1997)
Degree Days  
Heating Degree Days 66    
Moisture  
Dew Point -14 °F    
Average Humidity 69    
Maximum Humidity 83    
Minimum Humidity 45    
Precipitation  
Precipitation 0.00 in - - ()
Sea Level Pressure  
Sea Level Pressure 29.86 in    
Wind  
Wind Speed 1 mph (NNE)    
Max Wind Speed 6 mph    
Max Gust Speed -    
Visibility 10 miles    
Events      
Averages and records for this station are not official NWS values.
T = Trace of Precipitation, MM = Missing Value Source: NWS Daily Summary

Daily Weather History Graph

Daily Weather History Graph

Search for Another Location

Airport or City:

Trip Planner

Search our weather history database for the weather conditions in past years. The results will help you decide how hot, cold, wet, or windy it might be!

Date:

Astronomy

Jan. 19, 2003 Rise Set
Actual Time 7:15 AM EST 4:35 PM EST
Civil Twilight 6:43 AM EST 5:07 PM EST
Nautical Twilight 6:07 AM EST 5:43 PM EST
Astronomical Twilight 5:33 AM EST 6:18 PM EST
Moon 5:57 PM EST (1/19) 8:28 AM EST (1/19)
Length of Visible Light 10h 23m
Length of Day
9h 19m
Full, 98% of the Moon is Illuminated
Jan 19
Full
Jan 25
Last Quarter
Feb 1
New
Feb 9
First Quarter
Feb 16
Full

Hourly Weather History & Observations

Time (EST) Temp. Windchill Dew Point Humidity Pressure Visibility Wind Dir Wind Speed Gust Speed Precip Events Conditions
12:52 AM -20.0 °F - -27.0 °F 70% 30.01 in 10.0 mi Calm Calm - N/A   Clear
1:52 AM -20.0 °F - -25.1 °F 78% 29.99 in 10.0 mi Calm Calm - N/A   Clear
2:52 AM -20.0 °F - -25.1 °F 78% 29.98 in 10.0 mi Calm Calm - N/A   Clear
3:52 AM -20.9 °F -31.7 °F -27.0 °F 73% 29.96 in 10.0 mi ENE 3.5 mph - N/A   Clear
4:52 AM -20.9 °F - -27.0 °F 73% 29.94 in 10.0 mi Calm Calm - N/A   Clear
5:52 AM -20.0 °F - -26.0 °F 74% 29.95 in 10.0 mi Calm Calm - N/A   Clear
6:52 AM -20.9 °F - -27.0 °F 73% 29.95 in 10.0 mi Calm Calm - N/A   Clear
7:52 AM -18.9 °F - -25.1 °F 74% 29.95 in 10.0 mi Calm Calm - N/A   Clear
8:52 AM -15.0 °F - -20.9 °F 75% 29.93 in 10.0 mi Calm Calm - N/A   Clear
9:52 AM -9.9 °F - -17.0 °F 71% 29.90 in 10.0 mi Calm Calm - N/A   Clear
10:52 AM -0.0 °F -9.9 °F -9.9 °F 63% 29.86 in 10.0 mi NNW 4.6 mph - N/A   Clear
11:52 AM 5.0 °F - -8.0 °F 55% 29.83 in 10.0 mi Calm Calm - N/A   Clear
12:52 PM 10.9 °F - -6.0 °F 47% 29.81 in 10.0 mi Calm Calm - N/A   Clear
1:52 PM 12.9 °F 5.2 °F -4.0 °F 47% 29.78 in 10.0 mi SSW 4.6 mph - N/A   Clear
2:52 PM 17.1 °F 10.0 °F -0.9 °F 45% 29.77 in 10.0 mi Variable 4.6 mph - N/A   Clear
3:52 PM 15.1 °F 9.4 °F -0.0 °F 51% 29.77 in 10.0 mi Variable 3.5 mph - N/A   Clear
4:52 PM 12.9 °F 3.8 °F 1.0 °F 59% 29.78 in 10.0 mi NNW 5.8 mph - N/A   Partly Cloudy
5:52 PM 8.1 °F - -0.9 °F 67% 29.78 in 10.0 mi Calm Calm - N/A   Clear
6:52 PM 1.9 °F - -2.0 °F 83% 29.80 in 10.0 mi Calm Calm - N/A   Clear
7:52 PM -4.0 °F -12.4 °F -9.0 °F 79% 29.80 in 9.0 mi SSE 3.5 mph - N/A   Clear
8:52 PM -9.0 °F - -14.1 °F 79% 29.78 in 10.0 mi Calm Calm - N/A   Clear
9:52 PM -11.0 °F - -16.1 °F 78% 29.78 in 10.0 mi Calm Calm - N/A   Clear
10:52 PM -11.9 °F - -16.1 °F 82% 29.75 in 10.0 mi Calm Calm - N/A   Scattered Clouds
11:52 PM -8.0 °F -16.9 °F -13.0 °F 79% 29.72 in 6.0 mi NNE 3.5 mph - N/A   Haze